Temp_Advection
nan nan nan nan nan nan nan nan nan nan nan nan nan nan nan nan nan nan nan nan nan nan nan nan nan nan nan nan nan nan nan nan nan nan nan nan nan nan nan nan nan nan nan nan nan nan nan nan nan nan nan nan nan nan nan nan nan nan nan nan nan nan nan
nan 0 0 0 1 1 1 1 1 1 1 1 1 1 2 1 0 -0 0 1 1 1 1 1 1 1 1 1 0 1 2 2 2 2 1 0 1 1 1 1 1 -0 -0 -0 1 0 -2 -3 -3 -5 -2 1 -1 -2 -1 -2 -1 0 0 0 0 -0 nan
nan 0 0 1 0 1 1 1 1 1 1 1 0 1 2 1 0 -0 0 0 1 1 1 1 1 1 1 1 0 1 2 2 2 2 1 0 0 1 1 2 1 -0 -0 -0 0 1 -1 -2 -3 -5 -3 0 -0 -1 -2 -3 -2 -1 -1 -0 0 -0 nan
nan 0 0 1 1 1 1 1 1 0 0 0 0 1 2 1 0 0 0 0 1 1 1 1 1 1 1 1 0 0 1 2 2 2 1 1 0 1 1 1 1 0 -0 -0 -0 -0 0 -1 -4 -6 -3 -0 -1 -2 -2 -2 -2 -2 -3 -2 0 -0 nan
nan 1 1 0 1 1 1 1 1 1 0 -0 0 1 2 1 1 0 -0 0 1 1 1 1 1 1 1 1 0 0 1 2 2 2 1 1 0 1 1 1 1 -0 -1 -0 -0 -1 0 1 -3 -8 -4 1 -0 -3 -2 -1 -2 -3 -4 -3 -0 0 nan
nan 0 1 1 1 1 1 1 1 1 0 -0 0 1 2 1 0 0 -0 0 0 1 1 1 1 1 1 1 0 0 1 2 2 2 1 1 1 1 1 1 0 0 -0 0 1 0 -0 1 -1 -7 -7 1 2 -1 -2 -2 -3 -3 -2 -2 -1 0 nan
nan 0 1 1 1 1 1 1 1 1 1 0 0 1 1 1 0 0 0 0 0 1 1 1 1 1 1 1 1 1 1 2 2 1 1 1 1 1 0 0 0 1 1 1 1 1 1 1 0 -4 -7 -2 2 1 -1 -0 -3 -7 -4 -0 -1 -2 nan
nan 0 1 1 1 1 1 1 1 1 1 0 0 0 1 1 0 0 0 0 0 1 1 1 1 0 0 1 1 1 1 1 2 2 1 1 1 0 -0 0 0 1 1 1 1 2 1 0 0 -1 -3 -3 0 0 -0 1 -1 -7 -8 -2 -0 -3 nan
nan 0 0 1 1 1 1 1 1 1 0 0 0 -0 0 1 0 0 0 0 0 0 0 0 0 1 1 1 1 1 1 1 2 2 1 1 0 -0 -0 0 1 1 1 1 1 1 1 0 0 0 -1 -1 -0 0 -0 -0 -0 -4 -6 -4 -2 -1 nan
nan 0 0 1 1 1 1 1 1 1 0 1 0 -0 0 0 0 0 0 0 0 0 -0 0 1 1 1 1 1 0 1 1 2 2 1 -0 -1 -0 0 1 1 1 1 1 1 1 1 0 1 0 0 -0 -0 0 0 0 0 -2 -3 -3 -5 -4 nan
nan 0 0 1 1 1 1 1 1 1 1 1 1 -0 -0 -0 0 0 1 1 0 0 0 0 1 1 1 0 0 0 1 1 2 2 1 -1 -1 0 1 1 1 0 0 1 1 1 1 0 0 1 0 -0 -0 0 -0 1 1 -0 -1 -0 -3 -6 nan
nan 0 0 1 1 1 1 1 1 1 1 1 1 -0 -1 -0 0 1 1 1 0 0 1 0 0 1 1 0 0 0 1 1 2 2 1 0 0 -0 -0 1 1 1 1 1 1 1 1 0 -0 -0 0 -0 0 1 1 -0 1 0 -1 -0 -0 -3 nan
nan 1 0 1 1 1 1 1 1 1 1 1 1 0 -1 -0 0 0 1 1 0 0 0 0 0 0 1 0 0 0 1 1 1 2 2 1 -1 -2 -1 1 1 2 2 2 2 1 0 0 -0 -2 -1 2 1 1 1 -0 -1 0 -0 -1 -0 -1 nan
nan 1 0 1 1 1 1 0 1 2 2 1 1 1 -0 -1 0 0 0 0 0 0 0 0 0 1 1 0 0 0 0 1 1 2 2 0 -1 -1 -0 1 1 1 2 3 3 2 1 1 0 -2 -2 1 2 0 1 1 0 0 -0 -1 -1 -1 nan
nan 0 0 1 1 1 1 0 1 2 1 1 1 0 0 -0 -0 -0 0 0 0 -0 -0 0 1 1 1 0 0 0 0 1 1 1 1 -1 -1 -1 -0 0 1 1 2 2 2 2 1 0 -0 -0 -0 1 1 1 1 1 0 1 1 -1 -1 -1 nan
nan 0 0 1 1 1 1 1 1 1 1 1 1 0 0 0 -0 -0 0 0 0 -0 0 1 1 1 1 0 0 0 0 1 1 1 -0 -1 -2 -1 -1 -0 1 2 2 2 1 1 1 1 -0 0 0 1 2 2 2 0 -1 1 4 1 -3 -2 nan
nan 0 1 1 1 1 1 1 1 1 1 1 0 0 0 0 0 -0 -0 -0 -0 -0 0 0 1 1 1 0 0 0 0 1 1 1 0 -1 -1 -2 -2 -1 0 1 1 2 1 1 1 1 0 -0 0 1 2 3 3 1 -1 0 3 1 -3 -3 nan
nan 0 1 1 1 1 1 1 1 1 1 1 0 0 0 0 0 0 -1 -1 -0 0 0 1 1 1 1 1 0 0 0 1 1 1 0 1 0 -1 -2 -1 0 0 0 1 1 1 1 1 1 0 -0 -0 1 2 3 2 0 1 2 2 1 -0 nan
nan 0 0 1 1 1 1 1 1 1 1 1 0 0 0 0 0 0 -1 -1 -0 0 0 1 1 1 1 0 0 0 1 1 1 0 0 1 1 -0 -1 -0 -0 -1 -1 -0 0 1 1 1 1 0 -0 0 1 1 2 2 1 2 2 2 3 4 nan
nan 0 0 1 1 1 1 1 1 1 1 1 0 0 0 0 0 0 -0 -1 -0 -0 0 1 1 1 1 1 0 0 1 0 -0 0 1 1 1 0 -0 -1 -1 -0 -0 -0 -0 0 0 0 1 1 0 0 1 1 2 2 2 2 3 3 3 4 nan
nan 1 0 0 1 1 1 1 1 1 1 1 0 0 0 0 0 0 -1 -1 -0 0 0 1 1 1 1 1 0 0 -0 0 1 1 1 0 1 1 0 -1 -1 0 0 -0 -0 -0 0 0 0 1 1 1 1 1 1 2 3 2 3 4 3 2 nan
nan 0 0 0 0 1 1 1 1 1 1 0 0 0 -0 0 0 0 -0 -1 -0 0 1 1 1 1 0 0 -0 -0 0 0 1 0 0 0 1 1 0 0 0 0 0 0 0 0 0 1 0 0 1 1 1 1 1 1 2 2 2 3 3 3 nan
nan 0 0 0 0 1 1 1 1 0 0 0 0 0 0 0 0 0 -0 -0 -0 0 1 1 1 0 0 0 0 0 0 -0 0 0 0 1 1 0 0 1 0 0 0 0 0 0 0 1 0 0 0 0 0 1 1 1 1 1 1 2 3 3 nan
nan 1 0 0 0 0 1 1 0 0 0 0 0 0 0 0 -0 0 0 -0 -0 1 1 1 1 0 0 0 -0 -0 -0 -0 0 0 0 0 0 0 0 0 0 0 0 0 0 0 0 1 0 -0 -0 -0 -0 -0 0 1 1 1 1 2 2 2 nan
nan 1 0 0 0 0 0 1 1 0 0 0 0 0 0 0 -0 0 0 0 0 1 1 1 1 0 -0 -0 -0 -0 0 0 0 0 0 0 0 0 0 0 0 0 0 0 0 0 0 0 0 -0 -0 -1 -0 -0 -0 0 1 1 2 2 2 2 nan
nan 0 0 0 0 0 0 0 0 0 0 0 0 0 0 0 0 0 0 0 0 1 0 0 0 -0 -0 -0 -0 0 0 0 0 0 0 0 0 0 0 0 0 0 0 0 -0 -0 -1 -1 -0 -0 -0 -0 0 0 0 -0 -0 0 1 1 1 1 nan
nan 0 0 0 0 0 0 1 1 0 0 0 0 0 0 0 0 0 0 0 0 0 0 0 0 -0 -0 -0 0 0 0 0 0 0 0 0 0 0 0 0 0 -0 -0 -0 -0 -0 -0 -0 -0 -0 0 0 0 0 0 0 -0 -1 -0 0 1 0 nan
nan 0 0 0 0 0 1 1 0 -0 -0 0 0 0 0 0 0 0 0 0 0 0 0 0 -0 -0 -0 0 0 0 0 0 -0 -0 -0 0 0 0 0 -0 -0 -0 -0 -0 -0 -0 0 0 0 0 0 0 0 0 0 0 0 -0 -0 0 1 0 nan
nan 0 0 0 0 0 0 0 -0 -0 0 0 1 1 1 0 0 0 0 0 0 0 0 -0 -0 -0 0 0 0 0 0 -0 -0 -0 -0 -0 -0 0 -0 -0 -0 -0 -0 0 0 0 0 0 0 0 0 0 0 0 0 0 0 0 0 1 1 1 nan
nan 0 0 0 0 0 0 0 0 0 0 0 0 0 0 0 1 1 0 0 0 0 0 0 0 0 0 0 -0 0 -0 -0 -0 -0 -0 -0 -0 -0 -0 -0 -0 0 0 -0 -0 0 0 -0 -0 -0 -0 -0 -0 0 0 1 1 1 0 0 1 1 nan
nan 0 0 0 0 0 0 0 0 0 0 0 0 0 0 1 1 1 1 0 0 0 0 0 0 0 0 -0 0 -0 -0 -0 -0 -0 -0 -0 -0 -0 -0 -0 -0 0 0 -0 -0 0 0 -0 -0 -0 -1 -0 -0 0 0 1 1 1 0 0 0 0 nan
nan 0 0 0 0 0 0 0 0 0 0 0 0 0 1 1 1 1 0 0 0 0 0 0 0 0 0 -0 0 -0 -0 -0 -0 -0 -0 -0 -0 -0 -0 -0 0 0 -0 -0 0 0 0 -0 -0 -0 -0 -0 -0 -0 0 0 0 0 0 0 0 0 nan
nan 0 0 0 0 0 0 0 0 0 0 0 0 0 0 0 0 0 0 0 0 0 0 0 0 0 0 0 -0 -0 -0 0 0 -0 0 0 0 -0 -0 -0 0 -0 -0 -0 0 0 0 -0 -0 -0 -0 -0 -0 -0 -0 -0 -0 0 0 0 0 0 nan
nan 0 0 0 0 0 0 0 0 0 0 0 0 0 0 -0 -0 0 0 0 0 0 -0 -0 0 0 -0 -0 -0 -0 -0 0 0 0 0 0 0 -0 -0 0 -0 -0 -0 -0 0 0 0 -0 -0 -0 -0 -0 -0 -0 -0 -0 -0 -0 -0 -0 -0 -0 nan
nan 0 0 0 0 0 0 0 0 0 0 0 0 -0 -0 -0 -0 0 0 0 0 -0 -0 0 0 0 -0 -0 -0 -0 0 0 0 0 0 -0 -0 -0 -0 -0 -0 -0 -0 0 0 0 0 -0 -0 -0 -0 -0 -0 -0 -0 -1 -1 -1 -1 -1 -0 -0 nan
nan nan nan nan nan nan nan nan nan nan nan nan nan nan nan nan nan nan nan nan nan nan nan nan nan nan nan nan nan nan nan nan nan nan nan nan nan nan nan nan nan nan nan nan nan nan nan nan nan nan nan nan nan nan nan nan nan nan nan nan nan nan nan
Wind_Speed
30 32 33 34 35 35 36 36 37 37 37 36 35 32 30 29 29 30 30 30 29 27 27 27 27 28 28 28 27 26 26 24 23 24 23 22 22 21 21 24 26 33 41 39 34 36 40 42 45 43 39 40 41 40 40 41 39 38 37 36 38 40 40
28 30 32 33 34 35 35 36 38 39 38 37 35 33 31 30 30 30 30 30 29 27 27 27 27 28 28 28 27 26 26 25 24 24 25 24 24 25 25 26 28 31 38 42 39 38 41 44 46 45 41 40 42 42 42 41 40 38 38 39 41 43 42
27 29 31 32 34 35 35 36 39 41 39 37 35 33 31 31 30 30 30 29 28 27 27 27 27 28 28 28 27 27 26 26 25 25 27 28 27 28 28 27 28 31 36 42 43 42 45 47 47 46 42 40 42 43 43 42 41 39 39 41 44 45 42
27 28 30 32 33 34 35 36 39 41 40 38 36 33 31 30 30 29 29 27 27 26 26 27 27 27 27 28 27 27 27 26 26 26 27 30 30 29 29 28 28 30 33 38 43 46 47 47 48 47 44 43 44 44 43 42 40 39 43 46 46 45 43
25 26 28 30 31 33 34 36 38 41 41 39 36 33 31 30 30 29 28 27 26 26 25 26 26 26 26 27 27 27 27 26 26 27 28 31 32 31 30 29 29 30 32 37 43 47 48 45 46 48 47 44 42 43 43 41 39 41 46 48 47 45 45
24 24 26 28 29 31 33 35 37 40 41 39 36 33 31 30 30 29 28 26 26 25 26 25 25 25 25 26 27 26 26 26 26 28 30 31 32 31 30 28 28 29 32 36 40 44 47 45 44 47 48 45 40 38 38 39 44 48 48 48 49 48 47
22 23 24 25 27 30 32 33 36 39 40 39 36 33 32 31 30 30 28 27 26 26 26 25 24 24 24 25 25 25 25 25 26 27 29 31 31 30 27 26 28 29 31 34 37 42 45 44 42 43 45 46 41 35 33 35 45 54 55 53 54 53 50
21 21 23 24 26 27 29 32 35 37 38 37 36 34 33 31 31 30 29 28 27 26 25 24 23 23 23 24 24 24 24 25 25 26 29 29 28 26 25 27 29 30 32 34 38 42 42 38 37 38 42 44 36 29 32 39 47 57 60 58 56 53 51
21 22 22 24 25 26 28 31 35 37 36 35 35 34 33 32 31 31 29 28 27 26 24 23 23 22 22 22 22 23 24 24 24 26 27 26 24 24 25 27 28 30 33 35 38 41 38 35 34 33 35 37 31 29 39 49 52 55 58 57 57 54 49
22 22 22 23 24 25 27 31 33 35 34 33 34 34 34 33 32 30 30 28 27 26 24 24 23 23 22 21 21 22 23 24 24 24 25 24 24 24 25 26 28 31 33 34 36 39 38 36 37 35 32 34 37 41 48 51 49 50 51 50 54 57 52
23 22 20 21 23 25 28 30 31 32 32 32 33 33 34 33 31 30 30 29 27 26 25 24 23 22 22 21 20 21 21 23 24 23 23 23 23 24 25 26 29 30 31 32 34 38 38 38 41 41 38 40 46 48 48 47 45 44 44 43 47 54 53
22 21 19 20 23 26 28 29 29 28 29 31 32 33 33 31 29 30 30 29 27 26 25 24 23 22 22 21 20 20 20 23 24 23 22 23 25 27 29 29 28 28 30 32 34 37 39 39 40 42 42 43 46 45 44 44 42 39 41 42 43 47 51
23 22 21 21 24 26 26 26 26 27 28 29 30 30 31 29 28 30 30 29 28 26 25 24 23 22 22 20 19 19 20 22 23 22 22 24 26 28 28 28 28 29 30 32 34 38 39 36 37 41 44 43 40 41 42 42 42 40 41 43 43 47 54
25 24 22 22 23 25 25 24 24 26 27 28 27 28 28 28 27 28 29 29 28 26 24 23 23 22 21 19 17 18 19 21 21 21 22 24 25 25 25 25 27 28 30 32 34 36 36 36 37 41 43 40 36 37 40 42 43 43 43 46 49 53 57
26 24 23 22 23 24 24 24 23 25 25 26 25 26 27 28 27 26 28 28 27 25 24 23 22 21 19 17 16 16 18 19 20 21 23 24 24 24 24 24 25 26 28 30 30 31 33 37 39 37 36 35 36 39 41 42 44 45 47 50 52 54 55
25 24 23 22 23 24 25 23 23 23 24 24 24 25 26 28 28 27 27 27 25 24 23 22 21 19 17 15 14 15 16 17 19 21 23 24 25 25 25 24 24 25 27 27 27 30 34 37 35 31 32 35 38 40 41 42 44 46 45 46 50 53 52
24 23 23 22 23 25 24 23 21 21 22 22 23 25 27 29 29 29 28 26 24 23 22 21 19 18 16 15 14 15 16 17 18 20 22 24 24 25 26 26 26 26 27 28 30 32 33 33 31 31 33 34 36 38 39 40 44 44 41 42 46 50 50
23 22 22 23 24 25 24 22 19 19 20 21 22 25 27 29 29 29 28 26 24 23 21 20 18 17 16 15 14 15 16 16 17 19 21 22 23 25 27 28 28 29 30 31 31 30 30 30 31 32 32 33 34 36 36 38 40 40 38 39 41 42 45
23 23 22 23 24 24 23 21 18 17 18 19 21 24 27 29 30 29 28 26 24 23 21 19 18 17 16 15 14 16 16 15 16 19 21 21 22 25 27 28 29 31 32 31 29 29 29 29 30 31 32 32 34 35 34 34 35 35 34 37 38 36 37
22 23 22 22 23 23 22 21 19 17 17 18 21 24 26 28 30 30 29 27 25 23 21 19 17 16 15 15 16 16 16 16 18 19 20 20 21 24 26 28 29 30 30 31 31 30 30 29 29 30 32 33 33 33 33 32 33 33 32 33 36 32 31
21 23 23 22 21 21 21 19 17 16 16 17 20 23 25 28 30 30 29 27 25 23 21 18 16 14 13 14 16 16 16 17 16 16 17 19 21 23 25 27 28 28 29 29 30 29 28 28 29 30 31 32 32 31 32 32 31 32 30 29 31 31 31
21 22 22 21 21 21 20 18 16 15 15 16 19 21 24 27 29 29 27 26 25 23 19 17 15 13 12 14 15 16 15 15 15 15 16 18 20 22 24 25 25 26 26 26 26 26 27 27 29 30 30 30 30 29 29 30 30 30 28 28 28 28 31
20 22 23 22 21 21 19 17 16 15 14 14 17 20 22 25 27 28 26 25 23 20 16 14 13 12 13 14 14 14 14 15 15 14 15 16 19 21 21 21 22 22 22 22 23 24 26 26 27 29 28 28 27 27 28 29 30 29 28 27 27 26 28
19 22 23 22 21 20 19 18 15 14 13 13 15 17 21 23 25 27 26 24 22 18 14 13 12 12 13 14 14 14 14 13 13 13 13 15 17 18 17 17 17 18 18 20 21 22 23 25 25 26 27 27 26 26 28 29 30 29 26 25 26 25 24
18 20 22 22 21 20 18 17 16 14 13 13 13 15 19 22 23 25 26 24 21 17 14 13 13 14 15 15 14 13 11 10 11 11 12 13 14 13 13 13 13 14 16 17 18 20 22 24 25 25 26 26 25 25 26 28 28 28 26 24 23 22 19
18 20 21 21 21 20 18 18 17 14 12 13 14 15 18 22 22 23 24 22 20 17 15 14 16 16 15 15 12 10 8 9 9 9 10 10 10 9 9 9 10 12 14 15 17 19 21 23 24 25 25 25 24 23 23 26 27 28 27 25 22 18 15
18 20 21 21 21 20 19 18 18 16 13 14 15 16 19 23 23 22 23 22 19 18 18 19 19 17 15 13 10 8 8 7 6 6 6 5 5 5 6 8 9 11 13 15 16 17 19 21 23 24 25 24 23 22 21 23 25 27 27 25 22 19 16
16 18 19 19 19 19 19 20 20 17 13 13 15 16 19 25 27 24 24 23 21 21 22 21 19 16 14 11 9 8 7 5 3 2 2 1 2 3 4 6 9 11 12 13 14 16 17 20 22 23 25 25 25 24 22 22 23 24 24 24 22 19 17
15 15 15 16 16 17 19 20 17 12 9 10 13 14 17 24 30 29 25 25 24 23 23 21 16 14 12 10 8 8 5 3 2 3 2 1 1 2 4 6 7 9 10 12 14 16 18 20 22 23 24 26 26 26 25 23 23 23 23 23 22 20 19
13 12 12 13 14 14 15 14 10 7 7 9 11 13 14 20 29 31 27 25 25 23 21 19 15 13 11 10 9 7 5 5 5 5 4 3 2 3 3 5 6 7 9 12 14 16 19 21 22 23 25 26 27 27 27 26 24 23 23 24 25 24 21
10 10 11 12 11 11 11 10 8 9 10 10 11 13 14 19 26 32 30 27 26 24 22 18 15 13 12 11 10 8 7 8 8 7 6 5 4 3 2 3 4 6 9 11 13 16 18 20 22 23 25 26 28 28 29 28 27 25 24 24 25 26 25
9 10 11 12 12 9 8 10 11 12 12 11 12 13 15 18 24 30 32 30 28 26 23 20 17 14 13 11 10 9 9 10 10 8 7 6 4 3 2 2 4 6 9 11 13 15 17 19 21 23 24 26 27 29 30 30 31 30 28 26 25 25 26
11 12 13 13 14 12 8 8 10 12 13 12 13 15 18 21 22 25 30 32 30 27 23 20 18 15 14 12 11 11 12 12 11 9 8 7 5 4 2 2 4 7 9 10 12 15 16 19 20 21 23 25 27 28 30 31 32 32 32 31 29 27 26
12 14 15 15 14 14 11 7 7 10 13 14 15 18 22 24 24 23 25 28 28 26 23 21 19 17 15 14 13 13 14 13 11 10 9 7 6 4 3 3 5 7 8 9 12 14 16 18 20 21 23 24 26 27 29 31 32 33 33 33 33 31 28
9 12 15 16 16 15 14 10 7 8 13 17 19 20 24 26 27 27 27 27 26 24 22 20 19 18 17 16 15 15 15 13 12 11 10 8 6 4 3 3 4 6 7 9 11 13 16 18 20 22 23 24 25 27 29 30 32 33 34 34 34 33 31
7 8 11 14 17 16 14 12 8 7 13 19 20 22 26 29 30 31 32 30 25 23 22 20 19 18 18 17 16 16 15 14 12 11 10 8 6 4 3 3 3 5 6 8 10 13 15 17 19 21 22 24 25 27 28 29 30 31 32 33 33 33 33
Wind_Direction
271 270 269 267 265 262 258 253 247 248 250 252 252 246 237 234 237 243 248 253 255 257 260 261 262 265 265 265 264 267 268 267 269 265 261 262 265 266 268 274 277 278 284 288 290 295 300 305 309 311 310 310 309 311 312 313 312 313 316 317 317 316 314
271 270 269 268 266 262 260 255 249 249 251 253 251 246 238 234 236 240 246 252 255 257 260 261 262 264 264 263 264 266 268 267 267 265 265 268 271 275 277 279 280 279 284 289 292 296 300 306 309 308 309 310 308 310 313 313 313 314 315 316 315 313 313
272 271 269 268 266 262 260 255 250 251 253 253 251 245 238 234 235 239 244 251 255 258 260 261 262 263 262 262 264 266 267 267 267 265 266 272 277 280 282 283 281 280 283 288 293 299 301 305 307 306 308 310 309 312 313 313 314 313 313 314 314 313 314
272 270 268 266 264 261 258 254 252 253 254 254 251 245 238 234 236 239 243 250 254 258 261 260 262 262 262 262 263 266 267 266 267 267 268 273 277 280 284 284 282 281 283 288 293 297 300 302 305 306 310 312 311 313 313 312 311 309 311 314 315 314 314
270 269 266 265 264 262 259 257 255 254 254 254 251 245 237 234 235 238 242 248 252 256 259 259 261 261 260 261 262 264 267 266 267 268 269 273 276 281 285 285 283 282 284 288 290 294 299 303 304 306 309 311 310 312 312 310 306 306 311 315 314 312 311
267 267 266 265 263 261 260 259 257 255 254 254 251 244 237 233 234 237 241 245 250 254 256 257 260 260 259 260 261 264 267 267 268 269 270 273 277 281 283 283 285 286 287 289 290 294 299 301 300 302 307 310 310 309 307 305 306 309 312 313 312 311 310
265 264 265 265 262 260 260 259 257 255 254 253 249 244 238 234 234 236 238 242 246 251 255 257 259 260 261 261 262 265 267 267 268 269 271 275 277 279 283 288 292 293 291 292 292 293 295 296 297 299 303 309 311 306 301 302 307 311 312 312 311 311 311
266 264 264 264 262 261 260 258 256 254 253 252 249 245 241 236 234 235 236 240 244 249 254 258 261 261 262 262 262 264 266 267 268 269 272 275 276 279 287 293 294 292 291 292 291 291 292 294 295 296 300 306 307 301 299 303 307 308 310 311 311 310 311
264 263 263 262 262 262 259 257 255 253 254 253 250 246 243 239 235 234 235 238 243 248 252 256 261 262 261 262 262 264 266 268 269 270 273 275 277 284 290 290 290 289 289 290 288 289 291 291 290 291 297 300 299 296 299 304 306 306 307 310 311 308 309
260 260 262 263 263 262 259 256 255 254 255 255 252 248 245 242 237 233 234 236 240 245 250 255 259 261 261 261 262 264 267 269 270 270 270 271 277 284 286 286 286 286 287 288 287 289 291 289 287 289 292 293 294 297 299 303 306 306 307 310 310 309 310
259 258 260 263 263 261 258 256 255 255 256 254 252 249 246 243 238 234 233 234 238 243 249 254 258 260 261 260 262 265 267 269 271 268 263 263 268 271 271 275 280 282 284 285 286 287 287 286 288 291 292 291 295 298 300 304 307 306 306 306 305 306 308
257 256 256 259 261 258 257 257 257 257 255 252 250 249 248 244 236 232 231 232 237 242 248 254 259 260 260 260 263 267 267 268 269 265 258 257 260 262 263 267 271 274 278 279 281 282 282 285 288 290 291 292 297 302 304 306 307 303 301 301 299 298 299
258 256 254 255 258 257 257 259 259 257 253 250 247 244 247 246 236 230 230 230 235 241 247 254 258 259 261 263 265 267 267 269 269 267 263 262 264 266 268 270 270 271 274 275 277 279 281 284 285 287 293 299 304 307 307 305 303 299 298 297 294 292 295
261 258 256 256 258 258 259 261 260 257 252 248 242 235 238 244 239 230 228 230 234 239 246 252 256 258 261 264 266 267 267 271 274 276 276 276 276 276 276 276 276 276 277 277 280 284 287 289 291 294 302 308 308 305 302 299 298 296 295 293 292 293 295
266 263 260 260 260 259 259 260 260 256 250 245 238 228 226 234 238 234 229 230 233 238 243 249 252 255 259 263 267 267 269 275 280 282 283 284 284 283 282 282 282 283 285 287 289 291 292 294 298 302 304 303 300 296 294 293 294 295 295 295 296 296 297
268 268 265 264 263 261 260 261 259 255 250 243 233 222 218 223 232 236 234 231 233 236 241 245 249 254 259 264 268 268 272 279 282 283 285 286 288 289 289 291 292 292 294 293 290 288 289 292 295 296 294 293 293 294 295 296 297 298 297 296 297 298 299
271 273 271 269 265 261 260 261 260 255 250 241 228 219 216 218 224 232 236 235 234 235 238 243 248 255 260 263 269 273 276 279 280 282 285 288 291 293 294 298 301 301 300 298 294 292 292 294 295 296 297 297 298 300 302 300 299 299 299 296 296 299 301
274 275 274 271 267 263 262 264 263 254 247 239 224 216 216 217 220 228 234 236 235 235 238 243 249 255 258 263 270 274 277 280 281 283 286 289 290 291 295 302 305 303 303 301 300 299 298 300 302 304 304 303 304 306 303 299 298 299 300 296 295 298 301
273 272 273 271 267 264 263 265 262 252 243 235 221 214 216 217 219 224 229 232 233 234 238 242 247 253 258 265 273 276 277 278 280 284 287 289 291 293 299 304 303 302 304 306 306 305 306 308 309 308 308 308 310 309 304 300 300 302 301 298 296 297 298
273 271 271 269 267 265 264 264 260 248 239 231 219 213 216 219 220 221 225 229 231 233 236 240 245 251 256 263 270 272 271 273 279 286 289 289 291 296 299 300 301 305 310 312 312 311 311 313 313 312 313 313 312 310 306 305 305 305 303 297 295 295 291
275 271 269 268 268 268 265 264 260 247 236 228 218 211 214 221 223 222 223 227 230 232 235 239 245 250 251 255 260 262 265 272 280 284 284 286 292 294 295 298 305 313 314 311 311 313 315 317 317 316 316 315 314 312 309 308 308 309 306 298 293 293 290
277 271 268 267 268 268 265 262 259 249 235 227 219 212 212 220 226 225 224 227 229 230 233 238 242 246 247 249 254 258 265 273 275 276 280 288 293 292 295 304 312 313 312 311 315 320 322 323 321 319 318 317 316 314 311 311 314 315 312 303 295 291 289
277 270 267 265 265 266 264 260 255 247 235 225 220 215 211 216 226 229 228 229 229 226 228 233 235 238 242 246 251 256 263 270 274 281 289 292 293 297 305 313 314 312 315 321 327 329 330 329 327 325 324 323 321 320 318 318 320 321 317 310 303 296 289
274 269 266 265 264 264 263 261 254 244 233 223 217 215 210 211 221 228 229 230 228 224 224 229 231 237 242 244 248 254 263 273 280 288 294 295 301 310 317 317 316 320 328 335 338 339 339 339 337 335 333 331 329 327 324 322 323 325 325 320 312 304 296
271 270 267 265 264 263 263 262 256 245 233 222 215 211 206 205 214 224 227 228 226 223 225 228 231 238 241 241 246 254 263 273 280 288 299 306 313 320 321 321 328 338 344 349 351 351 350 350 349 346 342 337 334 331 326 325 326 329 332 328 317 309 301
270 269 267 264 263 262 260 260 256 248 235 224 218 210 200 197 204 216 224 225 223 222 224 225 230 237 238 237 242 251 256 264 278 294 305 315 322 325 330 337 347 354 358 2 3 358 356 358 356 353 349 344 340 335 330 329 332 337 340 337 329 325 321
274 268 265 263 262 260 258 256 252 247 235 223 219 211 197 191 193 204 216 219 218 216 216 219 226 231 230 229 233 238 247 259 280 302 311 320 330 336 347 355 1 8 9 7 5 1 1 3 2 359 358 355 351 347 342 338 340 345 348 343 338 341 345
278 273 268 265 261 258 255 251 248 246 238 225 220 212 197 188 186 194 208 213 209 208 212 218 223 221 216 219 225 228 239 256 273 290 300 327 354 1 8 9 9 12 10 5 4 6 7 9 8 6 6 6 5 1 356 350 349 353 356 353 351 353 359
278 276 273 268 262 255 250 248 249 249 243 228 221 214 202 191 187 190 202 211 210 209 213 217 218 213 208 211 216 217 221 221 188 169 160 137 75 42 28 19 13 10 9 9 11 13 15 15 14 13 13 15 15 12 8 3 359 358 1 4 4 5 8
276 274 269 263 260 255 252 251 251 243 226 214 209 208 201 194 191 192 197 206 211 213 217 218 214 209 207 207 208 209 195 171 164 161 155 144 116 85 43 23 20 17 17 19 19 19 21 20 18 17 18 20 21 21 18 15 10 6 6 9 11 11 13
278 273 267 261 255 251 247 242 232 218 210 202 195 194 193 192 193 194 197 202 207 211 217 222 215 207 206 206 203 198 180 165 163 161 154 146 129 107 66 35 31 29 27 26 25 23 24 22 20 19 20 22 23 24 24 23 22 18 15 14 13 13 15
268 260 262 265 264 254 235 225 220 211 203 197 189 184 185 189 192 195 198 203 209 214 218 220 214 205 204 204 197 185 173 167 164 160 154 149 142 129 101 66 45 39 35 29 26 25 25 24 22 21 22 23 24 25 25 25 26 26 25 23 20 17 17
260 246 240 245 256 259 244 220 214 205 197 193 184 177 179 183 187 193 199 202 208 215 218 216 210 204 201 199 190 178 172 169 165 162 160 156 152 145 124 89 55 42 36 28 25 26 26 26 25 24 24 26 27 26 26 26 26 27 28 27 26 23 21
259 247 233 224 231 246 247 228 208 198 188 184 181 177 178 178 178 185 199 204 206 210 214 210 204 200 198 195 188 177 172 171 168 166 165 161 156 153 133 88 56 43 36 29 27 28 27 27 27 25 25 27 28 29 29 28 27 27 27 28 29 27 25
264 251 239 221 211 224 236 229 211 193 181 181 182 178 176 177 175 180 195 206 206 206 207 204 198 197 196 191 184 177 174 174 172 170 170 165 158 156 133 85 60 47 38 30 29 30 29 29 28 26 25 26 28 29 30 30 29 28 28 28 28 28 26
285 258 244 222 204 206 220 223 216 197 181 180 182 178 177 180 180 182 193 203 202 198 200 199 196 196 195 189 182 179 178 177 176 175 173 168 163 157 132 92 67 52 42 34 30 30 30 30 30 29 27 28 29 30 31 31 30 30 30 29 29 28 27
Height
1343 1344 1344 1345 1346 1347 1348 1348 1350 1351 1351 1352 1352 1353 1354 1355 1356 1358 1360 1362 1363 1364 1365 1366 1367 1367 1367 1368 1367 1368 1368 1368 1368 1368 1368 1369 1367 1368 1368 1366 1366 1360 1349 1348 1352 1350 1347 1346 1344 1341 1341 1339 1335 1334 1333 1330 1328 1325 1322 1319 1316 1314 1313
1339 1339 1340 1341 1342 1343 1344 1345 1346 1347 1347 1347 1348 1349 1350 1351 1352 1353 1355 1357 1359 1361 1362 1362 1363 1364 1364 1365 1365 1365 1365 1365 1366 1366 1365 1366 1365 1364 1364 1364 1362 1359 1352 1344 1346 1347 1344 1343 1342 1338 1336 1336 1332 1329 1327 1325 1323 1320 1318 1315 1313 1310 1307
1335 1335 1335 1336 1337 1338 1340 1341 1342 1342 1343 1343 1344 1344 1345 1346 1348 1349 1351 1353 1355 1357 1358 1359 1360 1361 1361 1362 1362 1362 1362 1362 1363 1364 1363 1363 1363 1361 1361 1361 1360 1358 1353 1345 1341 1342 1341 1339 1338 1334 1332 1331 1328 1325 1323 1319 1317 1315 1313 1311 1309 1305 1302
1331 1330 1331 1331 1333 1334 1335 1337 1337 1338 1339 1339 1339 1340 1341 1342 1344 1346 1347 1349 1351 1353 1354 1355 1356 1357 1358 1359 1359 1359 1359 1360 1360 1360 1361 1360 1360 1359 1358 1358 1357 1355 1353 1347 1340 1337 1338 1337 1333 1330 1328 1326 1323 1321 1318 1315 1312 1310 1308 1306 1303 1300 1297
1326 1326 1326 1326 1328 1329 1330 1332 1333 1333 1334 1335 1335 1336 1336 1338 1339 1341 1343 1345 1347 1349 1350 1351 1352 1354 1355 1355 1356 1356 1356 1357 1357 1357 1358 1357 1357 1357 1355 1354 1354 1353 1351 1347 1340 1335 1334 1334 1330 1326 1324 1323 1320 1316 1313 1311 1308 1306 1303 1299 1297 1295 1292
1321 1321 1321 1321 1323 1323 1324 1327 1328 1328 1329 1330 1332 1332 1332 1333 1334 1337 1339 1341 1343 1345 1346 1347 1348 1350 1351 1351 1351 1352 1353 1353 1354 1354 1355 1354 1354 1353 1353 1351 1350 1349 1347 1344 1340 1335 1331 1330 1328 1323 1320 1319 1319 1315 1310 1306 1302 1299 1298 1295 1291 1288 1287
1316 1316 1316 1316 1317 1317 1319 1321 1322 1323 1325 1326 1328 1328 1328 1329 1330 1332 1335 1337 1339 1341 1342 1343 1345 1346 1347 1347 1348 1349 1350 1350 1351 1351 1351 1351 1351 1350 1350 1348 1346 1345 1344 1341 1338 1335 1331 1328 1325 1322 1317 1315 1315 1313 1309 1305 1298 1291 1290 1289 1286 1282 1280
1312 1312 1311 1311 1311 1312 1314 1315 1316 1318 1320 1322 1324 1324 1324 1325 1326 1328 1331 1333 1335 1337 1338 1340 1341 1342 1343 1344 1345 1345 1346 1347 1347 1348 1347 1347 1348 1348 1346 1344 1342 1341 1340 1338 1335 1332 1330 1326 1322 1319 1316 1313 1312 1310 1307 1304 1298 1289 1283 1282 1279 1277 1275
1308 1307 1306 1306 1306 1307 1309 1310 1311 1313 1315 1317 1319 1320 1320 1321 1323 1324 1326 1329 1331 1333 1335 1336 1336 1338 1339 1340 1341 1342 1343 1344 1344 1344 1344 1344 1345 1344 1343 1341 1339 1338 1337 1335 1332 1329 1328 1325 1320 1317 1315 1311 1310 1308 1303 1301 1298 1290 1282 1278 1272 1270 1271
1304 1303 1302 1301 1301 1302 1304 1305 1306 1308 1310 1312 1314 1315 1316 1317 1319 1321 1323 1325 1327 1329 1330 1332 1333 1334 1336 1337 1338 1339 1339 1340 1341 1341 1340 1341 1342 1342 1340 1338 1336 1335 1334 1332 1329 1326 1325 1322 1317 1315 1314 1310 1307 1305 1301 1298 1295 1288 1281 1277 1269 1261 1264
1299 1298 1297 1297 1297 1298 1300 1301 1302 1303 1305 1307 1309 1310 1312 1313 1315 1318 1319 1321 1323 1325 1326 1328 1329 1331 1332 1333 1334 1335 1336 1336 1337 1337 1338 1339 1340 1339 1338 1336 1334 1332 1331 1329 1326 1323 1322 1319 1314 1311 1311 1308 1304 1302 1298 1295 1292 1287 1280 1277 1271 1260 1257
1295 1294 1293 1293 1293 1294 1295 1296 1298 1299 1301 1302 1304 1305 1307 1309 1311 1313 1315 1317 1319 1321 1323 1324 1326 1327 1329 1330 1331 1331 1332 1333 1333 1334 1334 1335 1335 1334 1333 1332 1331 1330 1328 1326 1323 1320 1318 1316 1312 1308 1306 1305 1301 1297 1294 1291 1288 1286 1280 1276 1272 1264 1256
1290 1290 1289 1289 1289 1289 1291 1293 1294 1295 1296 1298 1300 1302 1302 1304 1307 1309 1311 1314 1316 1317 1319 1320 1322 1324 1325 1327 1328 1328 1328 1329 1329 1329 1330 1330 1330 1329 1329 1328 1327 1326 1325 1323 1320 1316 1313 1313 1310 1305 1301 1301 1299 1294 1290 1287 1284 1282 1279 1274 1269 1263 1256
1286 1286 1285 1285 1285 1286 1287 1289 1291 1292 1293 1294 1297 1299 1299 1300 1303 1305 1308 1310 1312 1314 1316 1317 1319 1321 1322 1323 1324 1324 1325 1325 1325 1325 1325 1325 1325 1324 1325 1324 1323 1323 1321 1319 1317 1312 1309 1308 1307 1303 1298 1297 1296 1292 1288 1285 1280 1277 1274 1269 1264 1259 1253
1283 1282 1282 1281 1282 1282 1283 1285 1288 1289 1290 1291 1293 1296 1297 1297 1298 1301 1304 1307 1309 1311 1313 1314 1316 1318 1319 1320 1321 1321 1322 1321 1322 1322 1321 1321 1320 1320 1321 1320 1319 1319 1317 1315 1313 1310 1306 1304 1303 1300 1297 1294 1293 1290 1286 1282 1277 1273 1269 1263 1257 1252 1248
1279 1278 1278 1278 1279 1279 1280 1282 1285 1286 1287 1288 1290 1293 1294 1295 1295 1297 1300 1303 1305 1307 1309 1311 1313 1314 1316 1317 1318 1318 1319 1318 1318 1318 1317 1317 1316 1316 1316 1316 1316 1315 1313 1311 1310 1308 1305 1302 1300 1298 1295 1292 1289 1285 1281 1277 1273 1269 1266 1260 1252 1246 1243
1275 1275 1275 1275 1276 1276 1278 1279 1282 1283 1284 1285 1287 1289 1291 1292 1293 1294 1296 1299 1302 1304 1306 1308 1310 1311 1313 1314 1315 1315 1315 1316 1315 1315 1314 1313 1313 1312 1311 1311 1311 1311 1309 1308 1306 1304 1301 1298 1296 1294 1291 1288 1285 1281 1277 1273 1267 1264 1262 1257 1249 1242 1237
1272 1272 1272 1273 1273 1274 1275 1277 1279 1280 1281 1282 1284 1286 1287 1288 1290 1292 1293 1296 1299 1301 1303 1305 1307 1309 1310 1311 1312 1312 1312 1312 1312 1312 1311 1311 1310 1309 1308 1308 1307 1306 1304 1303 1301 1299 1297 1294 1291 1288 1286 1283 1280 1277 1274 1270 1264 1261 1258 1253 1247 1241 1235
1269 1269 1270 1270 1271 1272 1273 1274 1275 1277 1277 1279 1281 1282 1284 1285 1287 1289 1290 1293 1296 1298 1300 1302 1304 1306 1307 1308 1309 1309 1309 1309 1309 1309 1308 1308 1308 1306 1305 1304 1303 1301 1299 1298 1296 1294 1291 1289 1287 1284 1281 1278 1276 1273 1270 1266 1262 1258 1254 1248 1244 1241 1236
1265 1266 1267 1268 1268 1269 1270 1271 1272 1273 1274 1276 1277 1279 1281 1282 1283 1285 1287 1290 1293 1294 1297 1299 1301 1303 1304 1305 1306 1306 1306 1306 1306 1306 1306 1305 1305 1304 1303 1301 1300 1298 1296 1293 1291 1289 1286 1284 1282 1280 1277 1274 1272 1269 1266 1262 1259 1255 1251 1245 1240 1238 1236
1262 1263 1264 1265 1265 1266 1267 1268 1269 1270 1271 1273 1274 1276 1278 1279 1280 1282 1285 1287 1290 1292 1294 1296 1298 1300 1302 1303 1303 1304 1304 1304 1304 1304 1303 1303 1303 1302 1301 1298 1296 1295 1293 1290 1288 1286 1283 1281 1278 1276 1274 1271 1268 1265 1262 1259 1256 1252 1247 1242 1237 1234 1232
1259 1260 1261 1262 1263 1263 1264 1265 1266 1267 1268 1269 1271 1273 1275 1276 1277 1280 1283 1285 1287 1289 1292 1294 1296 1298 1299 1300 1300 1301 1301 1301 1301 1302 1301 1301 1301 1300 1298 1296 1294 1293 1291 1288 1286 1283 1280 1278 1275 1272 1270 1268 1265 1262 1259 1255 1252 1247 1243 1239 1235 1232 1228
1257 1257 1258 1259 1260 1260 1261 1262 1263 1264 1265 1266 1268 1270 1273 1275 1276 1278 1281 1283 1284 1287 1290 1292 1294 1295 1296 1297 1298 1298 1299 1299 1299 1299 1299 1299 1298 1297 1296 1294 1293 1291 1289 1286 1283 1281 1278 1276 1273 1270 1267 1265 1262 1259 1255 1251 1247 1243 1239 1235 1231 1229 1226
1254 1254 1255 1255 1256 1257 1258 1259 1260 1261 1262 1263 1265 1267 1270 1273 1274 1276 1278 1281 1283 1285 1288 1290 1291 1293 1294 1294 1295 1295 1296 1296 1296 1297 1297 1296 1296 1295 1294 1292 1291 1289 1287 1284 1282 1280 1277 1274 1271 1268 1265 1262 1259 1256 1252 1248 1244 1240 1236 1232 1228 1225 1223
1251 1251 1252 1252 1253 1254 1254 1255 1257 1258 1259 1261 1262 1264 1266 1270 1272 1274 1276 1279 1281 1283 1286 1288 1289 1290 1291 1292 1292 1293 1294 1294 1294 1294 1294 1294 1293 1292 1292 1291 1290 1288 1285 1283 1281 1279 1276 1274 1270 1267 1264 1261 1257 1254 1250 1246 1242 1238 1234 1230 1226 1223 1221
1248 1248 1249 1249 1250 1250 1251 1252 1253 1255 1257 1258 1259 1261 1263 1267 1270 1272 1274 1277 1279 1282 1284 1286 1287 1287 1288 1289 1290 1291 1292 1292 1292 1292 1292 1292 1291 1291 1291 1290 1288 1287 1284 1283 1281 1279 1276 1273 1270 1267 1264 1260 1257 1253 1249 1245 1241 1236 1232 1228 1224 1221 1219
1246 1246 1246 1246 1247 1248 1248 1249 1250 1251 1254 1255 1256 1258 1261 1263 1267 1270 1272 1274 1277 1280 1282 1283 1284 1285 1286 1287 1288 1289 1290 1290 1290 1290 1290 1290 1290 1290 1290 1289 1287 1286 1284 1282 1281 1279 1277 1274 1271 1267 1264 1260 1256 1253 1249 1245 1240 1236 1231 1227 1223 1219 1217
1243 1243 1244 1244 1245 1245 1246 1246 1247 1248 1250 1252 1253 1256 1258 1261 1264 1267 1269 1271 1274 1277 1278 1280 1281 1283 1284 1285 1286 1287 1287 1288 1288 1289 1289 1290 1290 1289 1289 1288 1287 1285 1284 1283 1282 1280 1277 1274 1271 1268 1264 1260 1256 1252 1249 1245 1241 1237 1232 1228 1223 1219 1217
1240 1241 1241 1241 1242 1242 1242 1243 1244 1246 1248 1249 1251 1253 1256 1259 1261 1263 1266 1269 1272 1274 1276 1278 1279 1281 1282 1283 1284 1285 1286 1286 1287 1288 1288 1289 1289 1289 1288 1288 1286 1285 1284 1283 1282 1279 1277 1274 1272 1269 1265 1261 1257 1253 1249 1245 1241 1238 1234 1229 1225 1221 1218
1238 1238 1238 1238 1239 1239 1240 1241 1242 1244 1245 1247 1249 1251 1254 1257 1259 1261 1264 1267 1270 1272 1274 1276 1278 1279 1280 1281 1282 1283 1284 1285 1286 1287 1288 1288 1288 1288 1288 1287 1286 1285 1285 1283 1282 1279 1277 1274 1272 1270 1266 1262 1258 1255 1251 1247 1243 1239 1235 1231 1227 1223 1220
1236 1235 1235 1235 1236 1236 1237 1239 1240 1241 1243 1244 1246 1248 1251 1254 1257 1259 1262 1265 1267 1270 1272 1274 1276 1277 1278 1280 1281 1282 1283 1284 1285 1286 1287 1288 1288 1288 1288 1287 1287 1286 1285 1283 1282 1280 1277 1275 1273 1270 1267 1264 1260 1256 1253 1249 1245 1241 1237 1233 1229 1225 1221
1233 1233 1233 1233 1233 1234 1235 1236 1237 1239 1241 1242 1244 1247 1249 1252 1255 1257 1260 1263 1266 1268 1271 1273 1274 1276 1277 1278 1279 1280 1281 1283 1284 1286 1287 1287 1288 1288 1288 1287 1287 1286 1285 1284 1282 1280 1278 1276 1274 1271 1269 1265 1261 1258 1254 1251 1247 1243 1239 1236 1232 1228 1224
1231 1231 1231 1231 1231 1232 1233 1234 1235 1237 1239 1241 1243 1245 1248 1251 1254 1256 1258 1261 1264 1266 1269 1271 1273 1275 1276 1277 1278 1279 1281 1282 1284 1285 1286 1287 1288 1288 1288 1287 1286 1286 1285 1284 1283 1281 1279 1277 1275 1273 1270 1267 1263 1260 1256 1253 1249 1246 1242 1238 1234 1231 1228
1228 1227 1228 1229 1230 1230 1232 1233 1234 1235 1237 1240 1242 1244 1247 1250 1253 1256 1258 1259 1262 1264 1267 1269 1271 1273 1274 1276 1277 1278 1280 1281 1283 1285 1286 1287 1287 1287 1287 1287 1286 1286 1285 1284 1283 1282 1280 1278 1276 1274 1271 1268 1265 1262 1258 1255 1251 1248 1244 1241 1237 1234 1231
1226 1225 1225 1226 1228 1229 1230 1232 1233 1235 1236 1239 1241 1244 1247 1249 1252 1254 1256 1257 1260 1263 1265 1268 1270 1272 1273 1275 1276 1277 1279 1281 1283 1284 1285 1286 1287 1287 1287 1287 1286 1286 1286 1285 1284 1282 1281 1279 1277 1275 1272 1270 1266 1263 1260 1257 1254 1250 1247 1244 1241 1237 1234
1224 1223 1223 1224 1226 1228 1230 1232 1233 1235 1236 1239 1241 1243 1246 1247 1249 1251 1253 1254 1258 1261 1264 1267 1269 1271 1272 1274 1275 1277 1279 1280 1282 1284 1285 1286 1286 1286 1286 1287 1286 1286 1286 1285 1284 1283 1281 1280 1278 1276 1274 1271 1268 1265 1262 1259 1256 1254 1251 1247 1244 1241 1238